Time,TemperatureF,DewpointF,PressureIn,WindDirection,WindDirectionDegrees,WindSpeedMPH,WindSpeedGustMPH,Humidity,HourlyPrecipIn,Conditions,Clouds,dailyrainin,SoftwareType,DateUTC
2013-08-22 00:00:00,77.1,75.5,30.04,SE,130,2.0,6.0,95,0.00,,,0.00,Weather View 32 v70,2013-08-22 04:00:00,
2013-08-22 00:01:00,77.1,75.5,30.04,ESE,121,0.0,6.0,95,0.00,,,0.00,Weather View 32 v70,2013-08-22 04:01:00,
2013-08-22 00:06:00,77.2,75.6,30.04,ENE,78,0.0,8.0,95,0.00,,,0.00,Weather View 32 v70,2013-08-22 04:06:00,
2013-08-22 00:11:00,77.3,75.7,30.04,East,91,3.0,8.0,95,0.00,,,0.00,Weather View 32 v70,2013-08-22 04:11:00,
2013-08-22 00:17:00,77.3,75.7,30.04,ESE,103,3.0,8.0,95,0.00,,,0.00,Weather View 32 v70,2013-08-22 04:17:00,
2013-08-22 00:22:00,77.4,75.8,30.04,ESE,106,0.0,8.0,95,0.00,,,0.00,Weather View 32 v70,2013-08-22 04:22:00,
2013-08-22 00:27:00,77.4,75.8,30.04,ESE,106,0.0,8.0,95,0.00,,,0.00,Weather View 32 v70,2013-08-22 04:27:00,
2013-08-22 00:32:00,77.4,75.8,30.04,East,98,0.0,8.0,95,0.00,,,0.00,Weather View 32 v70,2013-08-22 04:32:00,
2013-08-22 00:37:00,77.5,75.9,30.04,East,99,0.0,8.0,95,0.00,,,0.00,Weather View 32 v70,2013-08-22 04:37:00,
2013-08-22 00:42:00,77.5,75.9,30.04,East,99,0.0,8.0,95,0.00,,,0.00,Weather View 32 v70,2013-08-22 04:42:00,
2013-08-22 00:47:00,77.5,75.9,30.04,East,99,1.0,8.0,95,0.00,,,0.00,Weather View 32 v70,2013-08-22 04:47:00,
2013-08-22 00:52:00,77.5,75.9,30.05,East,99,0.0,8.0,95,0.00,,,0.00,Weather View 32 v70,2013-08-22 04:52:00,
2013-08-22 00:57:00,77.6,76.0,30.04,East,99,0.0,8.0,95,0.00,,,0.00,Weather View 32 v70,2013-08-22 04:57:00,
2013-08-22 01:00:00,77.6,76.0,30.04,East,99,0.0,8.0,95,0.00,,,0.00,Weather View 32 v70,2013-08-22 05:00:00,
2013-08-22 01:02:00,77.6,76.0,30.04,East,99,0.0,8.0,95,0.00,,,0.00,Weather View 32 v70,2013-08-22 05:02:00,
2013-08-22 01:07:00,77.6,76.0,30.04,East,99,0.0,6.0,95,0.00,,,0.00,Weather View 32 v70,2013-08-22 05:07:00,
2013-08-22 01:12:00,77.6,76.0,30.04,East,101,5.0,6.0,95,0.00,,,0.00,Weather View 32 v70,2013-08-22 05:12:00,
2013-08-22 01:17:00,77.6,76.0,30.04,East,101,0.0,6.0,95,0.00,,,0.00,Weather View 32 v70,2013-08-22 05:17:00,
2013-08-22 01:22:00,77.6,76.0,30.04,ESE,103,0.0,6.0,95,0.00,,,0.00,Weather View 32 v70,2013-08-22 05:22:00,
2013-08-22 01:27:00,77.7,76.1,30.04,ESE,103,0.0,6.0,95,0.00,,,0.00,Weather View 32 v70,2013-08-22 05:27:00,
2013-08-22 01:32:00,77.7,76.1,30.05,ESE,103,0.0,6.0,95,0.00,,,0.00,Weather View 32 v70,2013-08-22 05:32:00,
2013-08-22 01:37:00,77.6,76.0,30.04,ESE,104,4.0,6.0,95,0.00,,,0.00,Weather View 32 v70,2013-08-22 05:37:00,
2013-08-22 01:42:00,77.6,76.0,30.04,ESE,103,0.0,6.0,95,0.00,,,0.00,Weather View 32 v70,2013-08-22 05:42:00,
2013-08-22 01:47:00,77.6,76.0,30.05,ESE,104,0.0,6.0,95,0.00,,,0.00,Weather View 32 v70,2013-08-22 05:47:00,
2013-08-22 01:52:00,77.6,76.0,30.04,ESE,104,1.0,6.0,95,0.00,,,0.00,Weather View 32 v70,2013-08-22 05:52:00,
2013-08-22 01:57:00,77.5,75.9,30.03,ESE,103,0.0,6.0,95,0.00,,,0.00,Weather View 32 v70,2013-08-22 05:57:00,
2013-08-22 02:00:00,77.5,75.9,30.03,ESE,103,0.0,6.0,95,0.00,,,0.00,Weather View 32 v70,2013-08-22 06:00:00,
2013-08-22 02:02:00,77.5,75.9,30.03,ESE,103,0.0,6.0,95,0.00,,,0.00,Weather View 32 v70,2013-08-22 06:02:00,
2013-08-22 02:07:00,77.5,75.9,30.04,ESE,104,0.0,6.0,95,0.00,,,0.00,Weather View 32 v70,2013-08-22 06:07:00,
2013-08-22 02:12:00,77.5,75.9,30.03,ESE,104,0.0,6.0,95,0.00,,,0.00,Weather View 32 v70,2013-08-22 06:12:00,
2013-08-22 02:17:00,77.6,76.0,30.03,ESE,103,0.0,5.0,95,0.00,,,0.00,Weather View 32 v70,2013-08-22 06:17:00,
2013-08-22 02:22:00,77.5,75.9,30.03,ESE,107,0.0,5.0,95,0.00,,,0.00,Weather View 32 v70,2013-08-22 06:22:00,
2013-08-22 02:27:00,77.5,75.9,30.02,ESE,107,3.0,4.0,95,0.00,,,0.00,Weather View 32 v70,2013-08-22 06:27:00,
2013-08-22 02:32:00,77.5,75.9,30.02,ESE,109,2.0,5.0,95,0.00,,,0.00,Weather View 32 v70,2013-08-22 06:32:00,
2013-08-22 02:37:00,77.5,75.9,30.02,ESE,110,2.0,5.0,95,0.00,,,0.00,Weather View 32 v70,2013-08-22 06:37:00,
2013-08-22 02:42:00,77.6,76.0,30.02,ESE,109,1.0,5.0,95,0.00,,,0.00,Weather View 32 v70,2013-08-22 06:42:00,
2013-08-22 02:47:00,77.6,76.0,30.01,ESE,113,0.0,5.0,95,0.00,,,0.00,Weather View 32 v70,2013-08-22 06:47:00,
2013-08-22 02:52:00,77.6,76.0,30.01,ESE,109,0.0,5.0,95,0.00,,,0.00,Weather View 32 v70,2013-08-22 06:52:00,
2013-08-22 02:57:00,77.6,76.0,30.01,ESE,107,0.0,7.0,95,0.00,,,0.00,Weather View 32 v70,2013-08-22 06:57:00,
2013-08-22 03:00:00,77.6,76.0,30.01,ESE,113,3.0,7.0,95,0.00,,,0.00,Weather View 32 v70,2013-08-22 07:00:00,
2013-08-22 03:02:00,77.6,76.0,30.01,ESE,103,2.0,7.0,95,0.00,,,0.00,Weather View 32 v70,2013-08-22 07:02:00,
2013-08-22 03:07:00,77.6,76.0,30.01,ESE,104,0.0,7.0,95,0.00,,,0.00,Weather View 32 v70,2013-08-22 07:07:00,
2013-08-22 03:12:00,77.6,76.0,30.01,ESE,105,0.0,7.0,95,0.00,,,0.00,Weather View 32 v70,2013-08-22 07:12:00,
2013-08-22 03:18:00,77.5,75.9,30.01,ESE,105,0.0,7.0,95,0.00,,,0.00,Weather View 32 v70,2013-08-22 07:18:00,
2013-08-22 03:23:00,77.5,75.9,30.01,East,98,0.0,7.0,95,0.00,,,0.00,Weather View 32 v70,2013-08-22 07:23:00,
2013-08-22 03:28:00,77.4,75.8,30.01,East,99,2.0,7.0,95,0.00,,,0.00,Weather View 32 v70,2013-08-22 07:28:00,
2013-08-22 03:33:00,77.4,75.8,30.01,East,99,0.0,7.0,95,0.00,,,0.00,Weather View 32 v70,2013-08-22 07:33:00,
2013-08-22 03:38:00,77.3,75.7,30.01,East,99,0.0,7.0,95,0.00,,,0.00,Weather View 32 v70,2013-08-22 07:38:00,
2013-08-22 03:43:00,77.3,75.7,30.01,East,93,0.0,7.0,95,0.00,,,0.00,Weather View 32 v70,2013-08-22 07:43:00,
2013-08-22 03:48:00,77.2,75.6,30.01,East,94,0.0,7.0,95,0.00,,,0.00,Weather View 32 v70,2013-08-22 07:48:00,
2013-08-22 03:53:00,77.2,75.6,30.01,East,92,0.0,8.0,95,0.00,,,0.00,Weather View 32 v70,2013-08-22 07:53:00,
2013-08-22 03:58:00,77.2,75.6,30.01,East,92,2.0,8.0,95,0.00,,,0.00,Weather View 32 v70,2013-08-22 07:58:00,
2013-08-22 04:00:00,77.1,75.5,30.01,East,100,1.0,8.0,95,0.00,,,0.00,Weather View 32 v70,2013-08-22 08:00:00,
2013-08-22 04:03:00,77.1,75.5,30.01,East,101,1.0,8.0,95,0.00,,,0.00,Weather View 32 v70,2013-08-22 08:03:00,
2013-08-22 04:08:00,77.1,75.5,30.00,East,88,5.0,8.0,95,0.00,,,0.00,Weather View 32 v70,2013-08-22 08:08:00,
2013-08-22 04:13:00,77.1,75.5,30.00,East,89,0.0,8.0,95,0.00,,,0.00,Weather View 32 v70,2013-08-22 08:13:00,
2013-08-22 04:18:00,77.1,75.5,30.00,East,96,0.0,8.0,95,0.00,,,0.00,Weather View 32 v70,2013-08-22 08:18:00,
2013-08-22 04:23:00,77.1,75.5,30.00,East,96,0.0,8.0,95,0.00,,,0.00,Weather View 32 v70,2013-08-22 08:23:00,
2013-08-22 04:28:00,77.1,75.5,30.00,East,93,0.0,8.0,95,0.00,,,0.00,Weather View 32 v70,2013-08-22 08:28:00,
2013-08-22 04:33:00,77.1,75.5,30.00,East,93,0.0,8.0,95,0.00,,,0.00,Weather View 32 v70,2013-08-22 08:33:00,
2013-08-22 04:38:00,77.1,75.5,30.00,East,94,0.0,8.0,95,0.00,,,0.00,Weather View 32 v70,2013-08-22 08:38:00,
2013-08-22 04:43:00,77.1,75.5,30.00,ESE,107,3.0,8.0,95,0.00,,,0.00,Weather View 32 v70,2013-08-22 08:43:00,
2013-08-22 04:48:00,77.1,75.5,30.00,ESE,109,0.0,8.0,95,0.00,,,0.00,Weather View 32 v70,2013-08-22 08:48:00,
2013-08-22 04:53:00,77.1,75.5,30.00,ESE,107,0.0,7.0,95,0.00,,,0.00,Weather View 32 v70,2013-08-22 08:53:00,
2013-08-22 04:58:00,77.1,75.5,30.00,East,98,2.0,7.0,95,0.00,,,0.00,Weather View 32 v70,2013-08-22 08:58:00,
2013-08-22 05:00:00,77.2,75.6,30.00,East,96,1.0,7.0,95,0.00,,,0.00,Weather View 32 v70,2013-08-22 09:00:00,
2013-08-22 05:03:00,77.1,75.5,30.00,East,96,1.0,6.0,95,0.00,,,0.00,Weather View 32 v70,2013-08-22 09:03:00,
2013-08-22 05:08:00,77.1,75.5,30.00,East,97,0.0,6.0,95,0.00,,,0.00,Weather View 32 v70,2013-08-22 09:08:00,
2013-08-22 05:13:00,77.1,75.5,30.00,East,98,1.0,6.0,95,0.00,,,0.00,Weather View 32 v70,2013-08-22 09:13:00,
2013-08-22 05:18:00,77.1,75.5,30.00,SE,131,0.0,7.0,95,0.00,,,0.00,Weather View 32 v70,2013-08-22 09:18:00,
2013-08-22 05:23:00,77.1,75.5,30.01,SE,132,0.0,7.0,95,0.00,,,0.00,Weather View 32 v70,2013-08-22 09:23:00,
2013-08-22 05:28:00,77.1,75.5,30.00,SE,131,0.0,7.0,95,0.00,,,0.00,Weather View 32 v70,2013-08-22 09:28:00,
2013-08-22 05:33:00,77.1,75.5,30.00,ESE,122,3.0,7.0,95,0.00,,,0.00,Weather View 32 v70,2013-08-22 09:33:00,
2013-08-22 05:38:00,77.1,75.5,30.00,ESE,115,0.0,7.0,95,0.00,,,0.00,Weather View 32 v70,2013-08-22 09:38:00,
2013-08-22 05:43:00,77.1,75.5,30.01,East,84,0.0,7.0,95,0.00,,,0.00,Weather View 32 v70,2013-08-22 09:43:00,
2013-08-22 05:49:00,77.2,75.6,30.01,East,101,1.0,7.0,95,0.00,,,0.00,Weather View 32 v70,2013-08-22 09:49:00,
2013-08-22 05:54:00,77.2,75.6,30.01,ESE,103,0.0,7.0,95,0.00,,,0.00,Weather View 32 v70,2013-08-22 09:54:00,
2013-08-22 05:59:00,77.2,75.6,30.01,SE,137,0.0,8.0,95,0.00,,,0.00,Weather View 32 v70,2013-08-22 09:59:00,
2013-08-22 06:00:00,77.2,75.6,30.01,SE,137,0.0,8.0,95,0.00,,,0.00,Weather View 32 v70,2013-08-22 10:00:00,
2013-08-22 06:04:00,77.1,75.5,30.01,SE,132,5.0,8.0,95,0.00,,,0.00,Weather View 32 v70,2013-08-22 10:04:00,
2013-08-22 06:09:00,77.1,75.5,30.01,ESE,104,0.0,8.0,95,0.00,,,0.00,Weather View 32 v70,2013-08-22 10:09:00,
2013-08-22 06:14:00,77.0,75.4,30.01,SE,129,5.0,8.0,95,0.00,,,0.00,Weather View 32 v70,2013-08-22 10:14:00,
2013-08-22 06:19:00,77.0,75.4,30.00,ESE,123,0.0,8.0,95,0.00,,,0.00,Weather View 32 v70,2013-08-22 10:19:00,
2013-08-22 06:24:00,77.0,75.4,30.01,ESE,111,3.0,8.0,95,0.00,,,0.00,Weather View 32 v70,2013-08-22 10:24:00,
2013-08-22 06:29:00,77.0,75.4,30.01,East,96,0.0,8.0,95,0.00,,,0.00,Weather View 32 v70,2013-08-22 10:29:00,
2013-08-22 06:34:00,76.9,75.3,30.00,East,101,0.0,8.0,95,0.00,,,0.00,Weather View 32 v70,2013-08-22 10:34:00,
2013-08-22 06:39:00,76.8,75.3,30.00,ESE,114,2.0,8.0,95,0.00,,,0.00,Weather View 32 v70,2013-08-22 10:39:00,
2013-08-22 06:44:00,76.8,75.3,30.00,ESE,110,0.0,8.0,95,0.00,,,0.00,Weather View 32 v70,2013-08-22 10:44:00,
2013-08-22 06:49:00,76.7,75.2,30.01,ESE,105,0.0,8.0,95,0.00,,,0.00,Weather View 32 v70,2013-08-22 10:49:00,
2013-08-22 08:27:00,78.7,76.2,30.03,SE,139,6.0,10.0,92,0.00,,,0.00,Weather View 32 v70,2013-08-22 12:27:00,
2013-08-22 08:32:00,79.0,76.5,30.03,ESE,107,2.0,10.0,92,0.00,,,0.00,Weather View 32 v70,2013-08-22 12:32:00,
2013-08-22 08:37:00,79.2,76.3,30.03,SE,134,1.0,10.0,91,0.00,,,0.00,Weather View 32 v70,2013-08-22 12:37:00,
2013-08-22 08:42:00,79.5,76.3,30.03,East,92,5.0,8.0,90,0.00,,,0.00,Weather View 32 v70,2013-08-22 12:42:00,
2013-08-22 08:47:00,79.9,76.3,30.04,East,91,1.0,9.0,89,0.00,,,0.00,Weather View 32 v70,2013-08-22 12:47:00,
2013-08-22 08:52:00,80.2,76.6,30.04,SE,130,0.0,9.0,89,0.00,,,0.00,Weather View 32 v70,2013-08-22 12:52:00,
2013-08-22 08:57:00,80.7,76.8,30.03,East,92,6.0,10.0,88,0.00,,,0.00,Weather View 32 v70,2013-08-22 12:57:00,
2013-08-22 09:00:00,80.8,76.9,30.03,ESE,109,1.0,10.0,88,0.00,,,0.00,Weather View 32 v70,2013-08-22 13:00:00,
2013-08-22 09:05:00,81.2,77.3,30.03,SE,129,3.0,11.0,88,0.00,,,0.00,Weather View 32 v70,2013-08-22 13:05:00,
2013-08-22 09:10:00,81.6,77.3,30.03,East,98,2.0,11.0,87,0.00,,,0.00,Weather View 32 v70,2013-08-22 13:10:00,
2013-08-22 09:15:00,81.8,77.5,30.03,East,92,3.0,11.0,87,0.00,,,0.00,Weather View 32 v70,2013-08-22 13:15:00,
2013-08-22 09:20:00,82.2,77.6,30.03,SE,133,6.0,11.0,86,0.00,,,0.00,Weather View 32 v70,2013-08-22 13:20:00,
2013-08-22 09:25:00,82.6,77.6,30.04,SE,143,7.0,11.0,85,0.00,,,0.00,Weather View 32 v70,2013-08-22 13:25:00,
2013-08-22 09:30:00,82.7,77.7,30.04,SE,134,5.0,11.0,85,0.00,,,0.00,Weather View 32 v70,2013-08-22 13:30:00,
2013-08-22 09:35:00,83.0,77.6,30.04,East,94,6.0,11.0,84,0.00,,,0.00,Weather View 32 v70,2013-08-22 13:35:00,
2013-08-22 09:40:00,83.3,77.9,30.04,ESE,106,2.0,11.0,84,0.00,,,0.00,Weather View 32 v70,2013-08-22 13:40:00,
2013-08-22 09:45:00,83.6,77.9,30.04,SSE,148,10.0,12.0,83,0.00,,,0.00,Weather View 32 v70,2013-08-22 13:45:00,
2013-08-22 09:50:00,83.4,77.7,30.05,East,101,0.0,12.0,83,0.00,,,0.00,Weather View 32 v70,2013-08-22 13:50:00,
2013-08-22 09:55:00,83.7,78.0,30.05,SSE,150,3.0,12.0,83,0.00,,,0.00,Weather View 32 v70,2013-08-22 13:55:00,
2013-08-22 10:00:00,84.2,78.1,30.05,East,94,5.0,12.0,82,0.00,,,0.00,Weather View 32 v70,2013-08-22 14:00:00,
2013-08-22 10:05:00,84.8,78.3,30.05,ESE,107,7.0,12.0,81,0.00,,,0.00,Weather View 32 v70,2013-08-22 14:05:00,
2013-08-22 10:10:00,85.4,78.5,30.05,East,96,6.0,12.0,80,0.00,,,0.00,Weather View 32 v70,2013-08-22 14:10:00,
2013-08-22 10:15:00,85.5,78.2,30.05,SE,128,1.0,12.0,79,0.00,,,0.00,Weather View 32 v70,2013-08-22 14:15:00,
2013-08-22 10:20:00,85.7,78.4,30.05,SE,129,4.0,12.0,79,0.00,,,0.00,Weather View 32 v70,2013-08-22 14:20:00,
2013-08-22 10:25:00,86.1,78.8,30.05,ESE,119,2.0,12.0,79,0.00,,,0.00,Weather View 32 v70,2013-08-22 14:25:00,
2013-08-22 10:30:00,86.7,79.0,30.05,ESE,103,3.0,12.0,78,0.00,,,0.00,Weather View 32 v70,2013-08-22 14:30:00,
2013-08-22 10:35:00,86.8,79.1,30.05,ESE,123,7.0,12.0,78,0.00,,,0.00,Weather View 32 v70,2013-08-22 14:35:00,
2013-08-22 10:40:00,86.8,78.7,30.05,ESE,107,7.0,12.0,77,0.00,,,0.00,Weather View 32 v70,2013-08-22 14:40:00,
2013-08-22 10:45:00,86.5,78.8,30.05,SE,125,5.0,12.0,78,0.00,,,0.00,Weather View 32 v70,2013-08-22 14:45:00,
2013-08-22 10:50:00,86.8,78.7,30.05,ESE,106,4.0,10.0,77,0.00,,,0.00,Weather View 32 v70,2013-08-22 14:50:00,
2013-08-22 10:55:00,86.4,78.7,30.05,SE,140,8.0,10.0,78,0.00,,,0.00,Weather View 32 v70,2013-08-22 14:55:00,
2013-08-22 11:00:00,86.3,79.0,30.05,East,91,0.0,11.0,79,0.00,,,0.00,Weather View 32 v70,2013-08-22 15:00:00,
2013-08-22 11:05:00,86.6,78.5,30.04,SE,132,5.0,11.0,77,0.00,,,0.00,Weather View 32 v70,2013-08-22 15:05:00,
2013-08-22 11:10:00,86.8,78.3,30.05,East,90,3.0,11.0,76,0.00,,,0.00,Weather View 32 v70,2013-08-22 15:10:00,
2013-08-22 11:16:00,87.1,78.2,30.04,East,87,5.0,11.0,75,0.00,,,0.00,Weather View 32 v70,2013-08-22 15:16:00,
2013-08-22 11:21:00,87.1,78.2,30.04,East,88,6.0,11.0,75,0.00,,,0.00,Weather View 32 v70,2013-08-22 15:21:00,
2013-08-22 11:26:00,87.0,78.5,30.04,ESE,114,3.0,11.0,76,0.00,,,0.00,Weather View 32 v70,2013-08-22 15:26:00,
2013-08-22 11:31:00,87.4,78.9,30.04,SSE,152,2.0,11.0,76,0.00,,,0.00,Weather View 32 v70,2013-08-22 15:31:00,
2013-08-22 11:36:00,87.3,78.8,30.04,ESE,122,1.0,11.0,76,0.00,,,0.00,Weather View 32 v70,2013-08-22 15:36:00,
2013-08-22 11:41:00,87.2,79.1,30.03,East,82,3.0,11.0,77,0.00,,,0.00,Weather View 32 v70,2013-08-22 15:41:00,
2013-08-22 11:46:00,87.7,79.2,30.03,ESE,106,9.0,11.0,76,0.00,,,0.00,Weather View 32 v70,2013-08-22 15:46:00,
2013-08-22 11:51:00,88.2,78.8,30.03,ESE,108,4.0,11.0,74,0.00,,,0.00,Weather View 32 v70,2013-08-22 15:51:00,
2013-08-22 11:56:00,88.6,79.2,30.03,SE,125,0.0,11.0,74,0.00,,,0.00,Weather View 32 v70,2013-08-22 15:56:00,
2013-08-22 12:00:00,88.7,78.5,30.03,ESE,117,8.0,11.0,72,0.00,,,0.00,Weather View 32 v70,2013-08-22 16:00:00,
2013-08-22 12:01:00,88.7,78.0,30.03,ESE,117,4.0,11.0,71,0.00,,,0.00,Weather View 32 v70,2013-08-22 16:01:00,
2013-08-22 12:06:00,88.8,78.6,30.03,SE,135,0.0,13.0,72,0.00,,,0.00,Weather View 32 v70,2013-08-22 16:06:00,
2013-08-22 12:11:00,88.9,78.2,30.02,ESE,107,7.0,13.0,71,0.00,,,0.00,Weather View 32 v70,2013-08-22 16:11:00,
2013-08-22 12:16:00,88.9,78.2,30.02,SE,133,5.0,13.0,71,0.00,,,0.00,Weather View 32 v70,2013-08-22 16:16:00,
2013-08-22 12:21:00,89.3,77.7,30.02,ESE,122,3.0,13.0,69,0.00,,,0.00,Weather View 32 v70,2013-08-22 16:21:00,
2013-08-22 12:26:00,89.7,78.1,30.02,East,97,3.0,13.0,69,0.00,,,0.00,Weather View 32 v70,2013-08-22 16:26:00,
2013-08-22 12:31:00,89.7,78.6,30.02,ESE,105,4.0,13.0,70,0.00,,,0.00,Weather View 32 v70,2013-08-22 16:31:00,
2013-08-22 12:36:00,90.5,78.4,30.02,SE,134,4.0,13.0,68,0.00,,,0.00,Weather View 32 v70,2013-08-22 16:36:00,
2013-08-22 12:41:00,91.0,78.9,30.01,ESE,106,2.0,13.0,68,0.00,,,0.00,Weather View 32 v70,2013-08-22 16:41:00,
2013-08-22 12:46:00,91.0,78.0,30.01,East,87,3.0,13.0,66,0.00,,,0.00,Weather View 32 v70,2013-08-22 16:46:00,
2013-08-22 12:51:00,90.9,78.4,30.01,ENE,65,0.0,13.0,67,0.00,,,0.00,Weather View 32 v70,2013-08-22 16:51:00,
2013-08-22 12:56:00,91.9,78.9,30.01,SE,125,5.0,13.0,66,0.00,,,0.00,Weather View 32 v70,2013-08-22 16:56:00,
2013-08-22 13:00:00,92.1,78.1,30.01,SE,127,0.0,13.0,64,0.00,,,0.00,Weather View 32 v70,2013-08-22 17:00:00,
2013-08-22 13:01:00,92.2,78.2,30.01,ESE,118,0.0,13.0,64,0.00,,,0.00,Weather View 32 v70,2013-08-22 17:01:00,
2013-08-22 13:06:00,91.9,77.4,30.01,South,175,0.0,12.0,63,0.00,,,0.00,Weather View 32 v70,2013-08-22 17:06:00,
2013-08-22 13:11:00,91.8,78.8,30.00,SE,128,0.0,12.0,66,0.00,,,0.00,Weather View 32 v70,2013-08-22 17:11:00,
2013-08-22 13:16:00,92.1,79.0,30.00,SE,138,0.0,12.0,66,0.00,,,0.00,Weather View 32 v70,2013-08-22 17:16:00,
2013-08-22 13:21:00,92.5,78.5,30.00,ENE,75,0.0,12.0,64,0.00,,,0.00,Weather View 32 v70,2013-08-22 17:21:00,
2013-08-22 13:26:00,92.1,77.6,30.00,East,86,0.0,12.0,63,0.00,,,0.00,Weather View 32 v70,2013-08-22 17:26:00,
2013-08-22 13:31:00,92.2,77.7,30.00,SE,130,4.0,12.0,63,0.00,,,0.00,Weather View 32 v70,2013-08-22 17:31:00,
2013-08-22 13:36:00,92.9,77.9,30.00,SE,142,1.0,12.0,62,0.00,,,0.00,Weather View 32 v70,2013-08-22 17:36:00,
2013-08-22 13:41:00,93.0,77.5,30.00,ESE,123,3.0,12.0,61,0.00,,,0.00,Weather View 32 v70,2013-08-22 17:41:00,
2013-08-22 13:46:00,92.3,77.3,30.00,ESE,116,0.0,12.0,62,0.00,,,0.00,Weather View 32 v70,2013-08-22 17:46:00,
2013-08-22 13:51:00,92.3,77.3,30.00,East,85,6.0,12.0,62,0.00,,,0.00,Weather View 32 v70,2013-08-22 17:51:00,
2013-08-22 13:57:00,91.9,77.4,29.99,ESE,120,0.0,9.0,63,0.00,,,0.00,Weather View 32 v70,2013-08-22 17:57:00,
2013-08-22 14:00:00,92.3,77.3,29.99,SE,130,4.0,9.0,62,0.00,,,0.00,Weather View 32 v70,2013-08-22 18:00:00,
2013-08-22 14:02:00,92.6,76.6,29.99,SE,129,0.0,9.0,60,0.00,,,0.00,Weather View 32 v70,2013-08-22 18:02:00,
2013-08-22 14:07:00,93.4,77.4,29.99,SE,130,0.0,9.0,60,0.00,,,0.00,Weather View 32 v70,2013-08-22 18:07:00,
2013-08-22 14:12:00,94.1,76.5,29.98,SE,128,5.0,9.0,57,0.00,,,0.00,Weather View 32 v70,2013-08-22 18:12:00,
2013-08-22 14:17:00,94.0,76.4,29.99,SSW,211,1.0,9.0,57,0.00,,,0.00,Weather View 32 v70,2013-08-22 18:17:00,
2013-08-22 14:22:00,93.9,76.8,29.98,SE,140,0.0,9.0,58,0.00,,,0.00,Weather View 32 v70,2013-08-22 18:22:00,
2013-08-22 14:27:00,93.8,76.2,29.99,ESE,117,3.0,9.0,57,0.00,,,0.00,Weather View 32 v70,2013-08-22 18:27:00,
2013-08-22 14:32:00,93.4,76.3,29.98,ESE,118,0.0,9.0,58,0.00,,,0.00,Weather View 32 v70,2013-08-22 18:32:00,
2013-08-22 14:37:00,93.0,77.5,29.98,SE,128,3.0,9.0,61,0.00,,,0.00,Weather View 32 v70,2013-08-22 18:37:00,
2013-08-22 14:42:00,92.4,76.4,29.98,SE,128,0.0,9.0,60,0.00,,,0.00,Weather View 32 v70,2013-08-22 18:42:00,
2013-08-22 14:47:00,92.4,77.9,29.98,SE,128,0.0,8.0,63,0.00,,,0.00,Weather View 32 v70,2013-08-22 18:47:00,
2013-08-22 14:52:00,92.0,77.5,29.97,South,178,0.0,8.0,63,0.00,,,0.00,Weather View 32 v70,2013-08-22 18:52:00,
2013-08-22 14:57:00,91.2,77.7,29.97,South,188,0.0,8.0,65,0.00,,,0.00,Weather View 32 v70,2013-08-22 18:57:00,
2013-08-22 15:00:00,90.9,77.9,29.97,WSW,242,7.0,7.0,66,0.00,,,0.00,Weather View 32 v70,2013-08-22 19:00:00,
2013-08-22 15:02:00,90.5,78.4,29.97,West,260,4.0,7.0,68,0.00,,,0.00,Weather View 32 v70,2013-08-22 19:02:00,
2013-08-22 15:07:00,89.7,78.6,29.97,WSW,251,0.0,7.0,70,0.00,,,0.00,Weather View 32 v70,2013-08-22 19:07:00,
2013-08-22 15:12:00,88.9,78.7,29.97,SSW,205,1.0,11.0,72,0.00,,,0.00,Weather View 32 v70,2013-08-22 19:12:00,
2013-08-22 15:17:00,88.0,78.2,29.97,SSW,196,3.0,11.0,73,0.00,,,0.00,Weather View 32 v70,2013-08-22 19:17:00,
2013-08-22 15:22:00,87.4,78.0,29.96,West,267,4.0,11.0,74,0.00,,,0.00,Weather View 32 v70,2013-08-22 19:22:00,
2013-08-22 15:27:00,86.7,77.4,29.96,WSW,257,4.0,11.0,74,0.00,,,0.00,Weather View 32 v70,2013-08-22 19:27:00,
2013-08-22 15:32:00,86.0,76.3,29.96,West,268,2.0,11.0,73,0.00,,,0.00,Weather View 32 v70,2013-08-22 19:32:00,
2013-08-22 15:37:00,86.2,77.3,29.95,West,279,3.0,11.0,75,0.00,,,0.00,Weather View 32 v70,2013-08-22 19:37:00,
2013-08-22 15:42:00,86.4,76.7,29.95,West,261,0.0,11.0,73,0.00,,,0.00,Weather View 32 v70,2013-08-22 19:42:00,
2013-08-22 15:47:00,86.3,76.6,29.95,SW,218,0.0,11.0,73,0.00,,,0.00,Weather View 32 v70,2013-08-22 19:47:00,
2013-08-22 15:52:00,85.9,75.4,29.95,ESE,105,2.0,13.0,71,0.00,,,0.00,Weather View 32 v70,2013-08-22 19:52:00,
2013-08-22 15:57:00,83.7,76.5,29.96,NNE,24,0.0,13.0,79,0.00,,,0.00,Weather View 32 v70,2013-08-22 19:57:00,
2013-08-22 16:00:00,83.0,76.2,29.96,NNE,32,0.0,13.0,80,0.00,,,0.00,Weather View 32 v70,2013-08-22 20:00:00,
2013-08-22 16:02:00,81.5,75.4,29.96,NE,39,0.0,13.0,82,0.00,,,0.00,Weather View 32 v70,2013-08-22 20:02:00,
2013-08-22 16:07:00,79.4,74.5,29.97,NNE,28,2.0,13.0,85,0.00,,,0.00,Weather View 32 v70,2013-08-22 20:07:00,
2013-08-22 16:12:00,78.4,74.5,29.97,NE,41,0.0,13.0,88,0.00,,,0.00,Weather View 32 v70,2013-08-22 20:12:00,
2013-08-22 16:17:00,77.7,74.2,29.98,NE,42,3.0,13.0,89,0.00,,,0.00,Weather View 32 v70,2013-08-22 20:17:00,
2013-08-22 16:22:00,77.4,74.2,29.98,ENE,71,0.0,13.0,90,0.00,,,0.00,Weather View 32 v70,2013-08-22 20:22:00,
2013-08-22 16:27:00,77.3,74.1,29.98,ENE,57,0.0,13.0,90,0.00,,,0.00,Weather View 32 v70,2013-08-22 20:27:00,
2013-08-22 16:32:00,77.3,74.1,29.98,ENE,61,0.0,13.0,90,0.00,,,0.00,Weather View 32 v70,2013-08-22 20:32:00,
2013-08-22 16:37:00,77.2,74.0,29.98,East,101,0.0,13.0,90,0.06,,,0.07,Weather View 32 v70,2013-08-22 20:37:00,
2013-08-22 16:42:00,76.7,73.5,29.98,ESE,105,0.0,13.0,90,0.17,,,0.18,Weather View 32 v70,2013-08-22 20:42:00,
2013-08-22 16:47:00,76.1,73.3,29.98,ESE,105,0.0,13.0,91,0.21,,,0.22,Weather View 32 v70,2013-08-22 20:47:00,
2013-08-22 16:53:00,75.7,72.9,29.99,ESE,105,0.0,12.0,91,0.25,,,0.26,Weather View 32 v70,2013-08-22 20:53:00,
2013-08-22 16:58:00,75.4,72.9,29.99,ESE,117,0.0,9.0,92,0.28,,,0.28,Weather View 32 v70,2013-08-22 20:58:00,
2013-08-22 17:00:00,75.4,72.9,29.99,ESE,117,0.0,9.0,92,0.28,,,0.28,Weather View 32 v70,2013-08-22 21:00:00,
2013-08-22 17:03:00,75.2,72.7,29.99,SSW,196,0.0,9.0,92,0.30,,,0.31,Weather View 32 v70,2013-08-22 21:03:00,
2013-08-22 17:08:00,74.6,72.1,29.98,SW,214,0.0,9.0,92,0.34,,,0.34,Weather View 32 v70,2013-08-22 21:08:00,
2013-08-22 17:13:00,74.2,71.7,29.97,SW,214,0.0,9.0,92,0.35,,,0.35,Weather View 32 v70,2013-08-22 21:13:00,
2013-08-22 17:18:00,74.2,72.0,29.96,SSW,205,0.0,8.0,93,0.36,,,0.36,Weather View 32 v70,2013-08-22 21:18:00,
2013-08-22 17:23:00,74.3,72.1,29.96,ESE,107,4.0,7.0,93,0.36,,,0.36,Weather View 32 v70,2013-08-22 21:23:00,
2013-08-22 17:28:00,74.3,72.1,29.97,ESE,108,0.0,7.0,93,0.36,,,0.36,Weather View 32 v70,2013-08-22 21:28:00,
2013-08-22 17:33:00,74.6,72.8,29.97,ENE,67,0.0,7.0,94,0.36,,,0.36,Weather View 32 v70,2013-08-22 21:33:00,
2013-08-22 17:38:00,74.9,73.0,29.98,ENE,57,0.0,7.0,94,0.30,,,0.36,Weather View 32 v70,2013-08-22 21:38:00,
2013-08-22 17:43:00,75.2,73.3,29.97,ENE,57,0.0,7.0,94,0.19,,,0.36,Weather View 32 v70,2013-08-22 21:43:00,
2013-08-22 17:48:00,75.3,73.4,29.98,ENE,58,2.0,7.0,94,0.15,,,0.36,Weather View 32 v70,2013-08-22 21:48:00,
2013-08-22 17:53:00,75.2,73.3,29.98,NE,35,1.0,7.0,94,0.11,,,0.36,Weather View 32 v70,2013-08-22 21:53:00,
2013-08-22 17:58:00,75.3,73.4,29.98,NE,44,0.0,7.0,94,0.08,,,0.36,Weather View 32 v70,2013-08-22 21:58:00,
2013-08-22 18:00:00,75.3,73.4,29.98,NE,53,2.0,7.0,94,0.08,,,0.36,Weather View 32 v70,2013-08-22 22:00:00,
2013-08-22 18:03:00,75.4,73.5,29.98,ENE,69,1.0,13.0,94,0.05,,,0.36,Weather View 32 v70,2013-08-22 22:03:00,
2013-08-22 18:08:00,75.6,73.7,29.98,East,95,6.0,13.0,94,0.02,,,0.36,Weather View 32 v70,2013-08-22 22:08:00,
2013-08-22 18:13:00,75.7,73.5,29.98,East,99,1.0,13.0,93,0.01,,,0.36,Weather View 32 v70,2013-08-22 22:13:00,
2013-08-22 18:18:00,75.7,73.5,29.98,ESE,119,2.0,13.0,93,0.00,,,0.36,Weather View 32 v70,2013-08-22 22:18:00,
2013-08-22 18:23:00,75.8,73.6,29.99,SE,129,1.0,13.0,93,0.00,,,0.36,Weather View 32 v70,2013-08-22 22:23:00,
2013-08-22 18:28:00,75.8,73.6,29.99,East,97,0.0,13.0,93,0.00,,,0.36,Weather View 32 v70,2013-08-22 22:28:00,
2013-08-22 18:33:00,75.8,73.6,29.99,ESE,116,0.0,13.0,93,0.00,,,0.36,Weather View 32 v70,2013-08-22 22:33:00,
2013-08-22 18:38:00,75.8,73.6,29.99,ESE,109,0.0,13.0,93,0.00,,,0.36,Weather View 32 v70,2013-08-22 22:38:00,
2013-08-22 18:43:00,75.9,73.7,29.99,East,90,0.0,13.0,93,0.00,,,0.36,Weather View 32 v70,2013-08-22 22:43:00,
2013-08-22 18:48:00,75.8,73.6,29.99,East,99,0.0,13.0,93,0.00,,,0.36,Weather View 32 v70,2013-08-22 22:48:00,
2013-08-22 18:53:00,75.9,74.0,29.99,ENE,63,2.0,13.0,94,0.00,,,0.36,Weather View 32 v70,2013-08-22 22:53:00,
2013-08-22 18:58:00,75.8,73.6,29.99,ESE,110,5.0,13.0,93,0.00,,,0.36,Weather View 32 v70,2013-08-22 22:58:00,
2013-08-22 19:00:00,75.8,73.6,29.99,East,85,2.0,13.0,93,0.00,,,0.36,Weather View 32 v70,2013-08-22 23:00:00,
2013-08-22 19:03:00,75.9,73.7,29.99,NE,56,3.0,10.0,93,0.00,,,0.36,Weather View 32 v70,2013-08-22 23:03:00,
2013-08-22 19:08:00,75.8,73.6,29.99,ESE,105,0.0,10.0,93,0.00,,,0.36,Weather View 32 v70,2013-08-22 23:08:00,
2013-08-22 19:13:00,75.8,73.6,29.99,NE,52,4.0,9.0,93,0.00,,,0.36,Weather View 32 v70,2013-08-22 23:13:00,
2013-08-22 19:18:00,75.8,73.6,29.99,East,88,0.0,9.0,93,0.00,,,0.36,Weather View 32 v70,2013-08-22 23:18:00,
2013-08-22 19:24:00,75.7,73.5,29.98,NE,52,0.0,9.0,93,0.00,,,0.36,Weather View 32 v70,2013-08-22 23:24:00,
2013-08-22 19:29:00,75.6,73.4,29.98,East,98,0.0,10.0,93,0.00,,,0.36,Weather View 32 v70,2013-08-22 23:29:00,
2013-08-22 19:34:00,75.5,73.3,29.99,East,95,0.0,10.0,93,0.00,,,0.36,Weather View 32 v70,2013-08-22 23:34:00,
2013-08-22 19:39:00,75.5,73.3,30.00,East,97,0.0,10.0,93,0.00,,,0.36,Weather View 32 v70,2013-08-22 23:39:00,
2013-08-22 19:44:00,75.4,73.2,30.00,East,96,0.0,10.0,93,0.00,,,0.36,Weather View 32 v70,2013-08-22 23:44:00,
2013-08-22 19:49:00,75.4,73.2,30.00,East,95,0.0,10.0,93,0.00,,,0.36,Weather View 32 v70,2013-08-22 23:49:00,
2013-08-22 19:54:00,75.4,73.2,29.99,ESE,106,1.0,10.0,93,0.01,,,0.37,Weather View 32 v70,2013-08-22 23:54:00,
2013-08-22 19:59:00,75.4,73.2,29.99,East,86,0.0,10.0,93,0.01,,,0.37,Weather View 32 v70,2013-08-22 23:59:00,
2013-08-22 20:00:00,75.4,73.2,29.99,East,86,0.0,10.0,93,0.01,,,0.37,Weather View 32 v70,2013-08-23 00:00:00,
2013-08-22 20:04:00,75.4,73.5,30.00,East,99,2.0,10.0,94,0.01,,,0.37,Weather View 32 v70,2013-08-23 00:04:00,
2013-08-22 20:09:00,75.3,73.4,30.00,East,80,2.0,10.0,94,0.01,,,0.37,Weather View 32 v70,2013-08-23 00:09:00,
2013-08-22 20:14:00,75.3,73.4,30.00,East,98,0.0,10.0,94,0.01,,,0.37,Weather View 32 v70,2013-08-23 00:14:00,
2013-08-22 20:19:00,75.3,73.4,30.00,East,99,0.0,10.0,94,0.02,,,0.38,Weather View 32 v70,2013-08-23 00:19:00,
2013-08-22 20:24:00,75.3,73.4,30.00,East,92,0.0,10.0,94,0.02,,,0.38,Weather View 32 v70,2013-08-23 00:24:00,
2013-08-22 20:29:00,75.3,73.4,30.00,East,92,0.0,8.0,94,0.02,,,0.38,Weather View 32 v70,2013-08-23 00:29:00,
2013-08-22 20:34:00,75.3,73.4,29.99,NE,49,0.0,8.0,94,0.02,,,0.38,Weather View 32 v70,2013-08-23 00:34:00,
2013-08-22 20:39:00,75.1,73.2,29.99,NE,53,0.0,8.0,94,0.02,,,0.38,Weather View 32 v70,2013-08-23 00:39:00,
2013-08-22 20:44:00,75.0,73.1,29.99,NE,50,0.0,8.0,94,0.02,,,0.38,Weather View 32 v70,2013-08-23 00:44:00,
2013-08-22 20:49:00,74.9,73.0,29.99,ENE,58,0.0,8.0,94,0.02,,,0.38,Weather View 32 v70,2013-08-23 00:49:00,
2013-08-22 20:54:00,74.8,72.9,29.98,ENE,57,0.0,8.0,94,0.01,,,0.38,Weather View 32 v70,2013-08-23 00:54:00,
2013-08-22 20:59:00,74.6,72.8,29.98,NE,53,3.0,8.0,94,0.01,,,0.38,Weather View 32 v70,2013-08-23 00:59:00,
2013-08-22 21:04:00,74.5,72.7,29.98,NE,52,0.0,8.0,94,0.01,,,0.38,Weather View 32 v70,2013-08-23 01:04:00,
2013-08-22 21:09:00,74.3,72.5,29.98,ENE,57,0.0,8.0,94,0.01,,,0.38,Weather View 32 v70,2013-08-23 01:09:00,
2013-08-22 21:14:00,74.2,72.4,29.98,ENE,57,0.0,7.0,94,0.01,,,0.38,Weather View 32 v70,2013-08-23 01:14:00,
2013-08-22 21:19:00,74.1,72.3,29.98,ENE,57,0.0,5.0,94,0.00,,,0.38,Weather View 32 v70,2013-08-23 01:19:00,
2013-08-22 21:24:00,74.1,72.3,29.98,East,82,0.0,7.0,94,0.00,,,0.38,Weather View 32 v70,2013-08-23 01:24:00,
2013-08-22 21:29:00,74.2,72.4,29.98,East,86,0.0,7.0,94,0.00,,,0.38,Weather View 32 v70,2013-08-23 01:29:00,
2013-08-22 21:34:00,74.2,72.4,29.98,East,86,0.0,7.0,94,0.00,,,0.38,Weather View 32 v70,2013-08-23 01:34:00,
2013-08-22 21:39:00,74.2,72.4,29.98,East,86,0.0,7.0,94,0.00,,,0.38,Weather View 32 v70,2013-08-23 01:39:00,
2013-08-22 21:44:00,74.2,72.4,29.98,East,87,0.0,7.0,94,0.00,,,0.38,Weather View 32 v70,2013-08-23 01:44:00,
2013-08-22 21:49:00,74.2,72.4,29.98,East,99,5.0,7.0,94,0.00,,,0.38,Weather View 32 v70,2013-08-23 01:49:00,
2013-08-22 21:54:00,74.2,72.4,29.98,East,100,0.0,7.0,94,0.00,,,0.38,Weather View 32 v70,2013-08-23 01:54:00,
2013-08-22 21:59:00,74.2,72.4,29.98,East,101,0.0,7.0,94,0.00,,,0.38,Weather View 32 v70,2013-08-23 01:59:00,
2013-08-22 22:04:00,74.3,72.5,29.98,East,101,0.0,7.0,94,0.00,,,0.38,Weather View 32 v70,2013-08-23 02:04:00,
2013-08-22 22:09:00,74.4,72.6,29.98,East,101,0.0,7.0,94,0.00,,,0.38,Weather View 32 v70,2013-08-23 02:09:00,
2013-08-22 22:14:00,74.4,72.6,29.99,East,101,0.0,7.0,94,0.00,,,0.38,Weather View 32 v70,2013-08-23 02:14:00,
2013-08-22 22:19:00,74.5,72.7,29.99,East,101,0.0,7.0,94,0.00,,,0.38,Weather View 32 v70,2013-08-23 02:19:00,
2013-08-22 22:25:00,74.6,72.8,29.99,East,101,0.0,6.0,94,0.00,,,0.38,Weather View 32 v70,2013-08-23 02:25:00,
2013-08-22 22:30:00,74.7,72.8,30.00,East,101,0.0,6.0,94,0.00,,,0.38,Weather View 32 v70,2013-08-23 02:30:00,
2013-08-22 22:35:00,74.7,72.8,29.99,East,101,0.0,6.0,94,0.00,,,0.38,Weather View 32 v70,2013-08-23 02:35:00,
2013-08-22 22:40:00,74.7,72.8,30.00,East,101,0.0,6.0,94,0.00,,,0.38,Weather View 32 v70,2013-08-23 02:40:00,
2013-08-22 22:45:00,74.8,73.3,30.00,East,101,0.0,6.0,95,0.00,,,0.38,Weather View 32 v70,2013-08-23 02:45:00,
2013-08-22 22:50:00,74.8,73.3,30.01,East,101,0.0,6.0,95,0.00,,,0.38,Weather View 32 v70,2013-08-23 02:50:00,
2013-08-22 22:55:00,74.9,73.4,30.01,East,101,0.0,6.0,95,0.00,,,0.38,Weather View 32 v70,2013-08-23 02:55:00,
2013-08-22 23:00:00,74.9,73.4,30.00,East,101,3.0,3.0,95,0.00,,,0.38,Weather View 32 v70,2013-08-23 03:00:00,
2013-08-22 23:05:00,75.0,73.5,30.00,East,100,0.0,3.0,95,0.00,,,0.38,Weather View 32 v70,2013-08-23 03:05:00,
2013-08-22 23:10:00,75.1,73.6,30.00,East,99,0.0,3.0,95,0.00,,,0.38,Weather View 32 v70,2013-08-23 03:10:00,
2013-08-22 23:15:00,75.1,73.6,30.00,East,100,0.0,3.0,95,0.00,,,0.38,Weather View 32 v70,2013-08-23 03:15:00,
2013-08-22 23:20:00,75.2,73.7,30.01,East,101,0.0,3.0,95,0.00,,,0.38,Weather View 32 v70,2013-08-23 03:20:00,
2013-08-22 23:25:00,75.2,73.7,30.01,East,101,0.0,3.0,95,0.00,,,0.38,Weather View 32 v70,2013-08-23 03:25:00,
2013-08-22 23:30:00,75.2,73.7,30.01,East,100,0.0,3.0,95,0.00,,,0.38,Weather View 32 v70,2013-08-23 03:30:00,
2013-08-22 23:35:00,75.2,73.7,30.01,East,100,0.0,3.0,95,0.00,,,0.38,Weather View 32 v70,2013-08-23 03:35:00,
2013-08-22 23:40:00,75.2,73.7,30.01,East,101,0.0,3.0,95,0.00,,,0.38,Weather View 32 v70,2013-08-23 03:40:00,
2013-08-22 23:45:00,75.2,73.7,30.01,East,100,0.0,3.0,95,0.00,,,0.38,Weather View 32 v70,2013-08-23 03:45:00,
2013-08-22 23:50:00,75.2,73.7,30.00,East,100,0.0,3.0,95,0.00,,,0.38,Weather View 32 v70,2013-08-23 03:50:00,
2013-08-22 23:55:00,75.2,73.7,30.00,East,100,0.0,3.0,95,0.00,,,0.38,Weather View 32 v70,2013-08-23 03:55:00,